Other Public Products
Issued by NWS Grand Forks, ND

Home | Current Version | Previous Version | Graphics & Text | Print | Product List | Glossary On
Versions: 1 2 3 4 5 6 7 8 9 10 11 12 13 14 15 16 17 18 19 20 21 22 23 24 25 26 27 28 29 30 31 32 33 34 35 36 37 38 39 40 41 42 43 44 45 46 47 48 49 50
000
FPUS83 KFGF 241510
OPUFGF
PRAIRIE TO PINES WEATHER ROUNDUP
NATIONAL WEATHER SERVICE EASTERN NORTH DAKOTA/GRAND FORKS ND
1000 AM CDT TUE APR 24 2018

 **SATELLITE DATA USED TO AUGMENT SKY COVER AT AUTOMATED STATIONS**
 *****  WEATHER ACROSS EASTERN NORTH DAKOTA  *****

CITY           SKY/WX    TMP DP  RH WIND       PRES   REMARKS
GRAND FORKS    FAIR      43  34  70 N17       30.39S
GRND FORKS AFB FAIR      45  31  58 N18       30.39S
GRND FORKS NWS   N/A     39  33  79 VRB6      30.36F
BUXTON           N/A     44  39  83 N16         N/A
DEVILS LAKE    FAIR      42  29  59 NE14      30.42S
FARGO          FAIR      45  39  79 NE12      30.35S
WAHPETON ARPT  CLOUDY    43  37  81 N13G18    30.33S
$$

 *****  WEATHER ACROSS CENTRAL AND WESTERN NORTH DAKOTA  *****

CITY           SKY/WX    TMP DP  RH WIND       PRES   REMARKS
JAMESTOWN      FAIR      46  34  62 N14       30.38R
BISMARCK       FAIR      45  31  58 N12       30.45R
MINOT          FAIR      47  26  44 NW10      30.45S
MINOT AFB      FAIR      46  26  45 NW15      30.44S
GARRISON         N/A     44  29  55 NW10      30.46R
WILLISTON      FAIR      43  29  57 S5        30.49F
DICKINSON      FAIR      45  23  42 N8        30.46R
HETTINGER      FAIR      36  29  75 NW10      30.48R
$$

 *****  OTHER OBSERVATIONS NORTHEAST NORTH DAKOTA  *****

CITY           SKY/WX    TMP DP  RH WIND       PRES   REMARKS
WALHALLA       FAIR      41  28  60 N17G23    30.43S
LANGDON        FAIR      41  30  65 N14       30.41S
CAVALIER         N/A     41  28  60 NW20G26   30.42S
GRAFTON        FAIR      43  30  61 N18       30.42S
CANDO          FAIR      43  28  56 NE10      30.45R
FORT TOTTEN      N/A     43  31  62 N5        29.95S
ROLLA          FAIR      37  30  75 N12       30.43S
RUGBY          FAIR      41  28  60 NE6       30.43S
 ***** THE ABOVE OBSERVATIONS ARE NON NWS ARE NOT QUALITY
        CONTROLLED AND MAY MIS-REPORT RAIN FOR SNOW...
$$

 *****  OTHER OBSERVATIONS SOUTHEAST NORTH DAKOTA *****

CITY           SKY/WX    TMP DP  RH WIND       PRES   REMARKS
COOPERSTOWN    FAIR      43  34  70 N16       30.39S
VALLEY CITY    FAIR      43  37  81 NE15      30.39R
OAKES            N/A     39  39 100 N10       30.36S
GWINNER          N/A     41  41 100 N12       30.35S FOG
SHEYENNE NWR     N/A     43  42  96 N7        29.95S
BUFFALO          N/A     43  34  72 SW14        N/A
WYNDMERE       NOT AVBL
 ***** THE ABOVE OBSERVATIONS ARE NON NWS ARE NOT QUALITY
       CONTROLLED AND MAY MIS-REPORT RAIN FOR SNOW...
$$

  *****  WEATHER ACROSS NORTHERN MINNESOTA  *****

CITY           SKY/WX    TMP DP  RH WIND       PRES   REMARKS
FLAG ISLAND    FAIR      34  23  64 N17       30.33R WCI  23
WARROAD        FAIR      39  28  65 NW20      30.34S
ROSEAU         FAIR      41  30  65 NW13      30.34S
HALLOCK        FAIR      43  28  56 NW18G24   30.39S
THF RVR FALLS  FAIR      43  29  57 NW17      30.36F
HALSTAD        NOT AVBL
FOSSTON        FAIR      43  30  61 N17       30.35R
BAUDETTE       FAIR      38  26  62 NW16G26   30.31F
WASKISH        PTSUNNY   41  30  65 NW7       30.31S
CROOKSTON      FAIR      45  34  65 N20       30.38F
$$
  *****  WEATHER ACROSS CENTRAL AND WEST MINNESOTA  *****

CITY           SKY/WX    TMP DP  RH WIND       PRES   REMARKS
BEMIDJI        FAIR      42  30  61 N8        30.31S
PARK RAPIDS    CLOUDY    40  35  83 N10       30.29F
WADENA         LGT RAIN  41  37  87 N8        30.30S
DETROIT LAKES  FAIR      43  39  87 N5        30.33S
MOORHEAD       FAIR      43  37  81 N13G18    30.35S
FERGUS FALLS   DRIZZLE   43  37  81 N13       30.30S
ELBOW LAKE     DRIZZLE   41  38  90 NE14      30.30F
MORRIS MN      FAIR      48  41  76 N23G32    30.26S
STAPLES        DRIZZLE   43  37  81 N9        30.29R
WHEATON        DRIZZLE   43  39  87 N13       30.33S
$$
  *****  WEATHER ELSEWHERE ACROSS MINNESOTA  *****

CITY           SKY/WX    TMP DP  RH WIND       PRES   REMARKS
DULUTH         CLOUDY    49  30  48 E7        30.21S
INTRNTL FALLS  FAIR      43  27  53 NW14      30.27S
ELY            PTSUNNY   45  28  53 CALM      30.23S
CLOQUET        CLOUDY    48  28  46 N5        30.22R
BRAINERD       LGT RAIN  47  31  53 N16       30.27R
HIBBING        CLOUDY    43  29  57 N12       30.24S
ALEXANDRIA     LGT RAIN  46  39  76 N16       30.28R
SAINT CLOUD    CLOUDY    48  34  58 N17G25    30.21R
MINNEAPOLIS    FAIR      62  42  47 NW8       30.14R
$$

  *****  WEATHER ACROSS SOUTH DAKOTA  *****

CITY           SKY/WX    TMP DP  RH WIND       PRES   REMARKS
SIOUX FALLS    CLOUDY    50  40  68 N13       30.21R
BROOKINGS      LGT RAIN  43  38  82 NE16G24   30.23S
WATERTOWN      LGT RAIN  41  39  93 N23       30.27R
HURON          CLOUDY    44  40  85 NE21G31   30.25R
SISSETON         N/A     43  40  89 N17       30.31S
ABERDEEN       RAIN      41  39  93 NE20G28   30.34R FOG
MITCHELL       LGT RAIN  48  42  80 NE17G24   30.21R
PIERRE         LGT RAIN  38  37  97 N21G29    30.35R FOG
MOBRIDGE       MIX PCPN  38  35  89 N10       30.39R
RAPID CITY     FLURRIES  37  32  82 N20G25    30.46R
$$

  *****  SOME WEATHER IN NEARBY STATES *****

CITY           SKY/WX    TMP DP  RH WIND       PRES   REMARKS
GLASGOW MT     FAIR      44  30  57 CALM      30.48S
GREAT FALLS MT FAIR      43  28  55 S13       30.46F
CHEYENNE WY    CLOUDY    30  26  85 N17G32    30.39R WCI  18
SCOTTSBLUFF NE CLOUDY    39  32  76 N18       30.44R
OMAHA NE       CLOUDY    59  40  49 CALM      30.16S
DES MOINES IA  FAIR      63  35  35 NW5       30.13R
DAVENPORT IA   FAIR      64  29  26 MISG      30.09F
CHICAGO IL     PTSUNNY   57  44  62 N7        30.05F
EAU CLAIRE WI  FAIR      58  35  42 CALM      30.10F
LA CROSSE WI   FAIR      58  39  49 VRB3      30.10F
$$

  *****  SOME NATIONAL WEATHER *****

CITY           SKY/WX    TMP DP  RH WIND       PRES   REMARKS
LA GUARDIA NY  PTSUNNY   61  33  35 SE14      30.39F
RALEIGH NC     LGT RAIN  58  57  97 E18G28    30.00R
ATLANTA GA     PTSUNNY   64  60  87 NW12      29.89R
NEW ORLEANS LA FAIR      70  58  65 NW12      30.04S
OKLAHOMA CITY  FAIR      67  50  54 CALM      30.14S
ALBUQUERQUE NM PTSUNNY   60  24  25 NW6       30.15S
SALT LAKE CITY FAIR      50  36  58 W5        30.30R
LOS ANGELES CA CLOUDY    56  52  86 E3        30.03R FOG
BOISE ID       FAIR      49  32  52 SE13G21   30.38R
SEATTLE WA     PTSUNNY   54  39  57 NW5       30.20R
$$

*** WEATHER ACROSS MANITOBA...SASKATCHEWAN AND ONTARIO ***
                ***ONTARIO***

CITY           SKY/WX    TMP DP  RH WIND       PRES   REMARKS
GERALDTON      PTSUNNY   41  28  60 W7        30.13S
THUNDER BAY    PTSUNNY   48  28  46 NW8       30.19S
SIOUX LOOKOUT  CLOUDY    32  23  69 NW15G22   30.24R WCI  22
TORONTO        CLOUDY    57  43  58 S5        30.18F
BIG TROUT LK   CLOUDY    23  16  74 N9G20     30.27R WCI  13
PICKLE LAKE    FLURRIES  30  23  74 N9        30.20R WCI  22
DRYDEN         CLOUDY    30  19  64 NW9G17    30.26S WCI  22
KENORA         CLOUDY    30  19  64 NW10G17   30.31R WCI  21
$$
                *** MANITOBA***

CITY           SKY/WX    TMP DP  RH WIND       PRES   REMARKS
BRANDON        SUNNY     39  28  65 CALM      30.45S
DAUPHIN        SUNNY     37  27  65 VRB2      30.45F
ISLAND LAKE    MOSUNNY   23  16  74 W8        30.39R WCI  14
PILOT MOUND      N/A     39  25  56 N12G18      N/A
THE PAS        MOSUNNY   36  23  60 S10       30.36F
THOMPSON       MOSUNNY   27  19  74 SW7       30.35F WCI  19
WINNIPEG       SUNNY     34  21  60 N14G20    30.43R WCI  24
LYNN LAKE      MOSUNNY   34  27  75 S9        30.21F
CHURCHILL      PTSUNNY   23  18  80 SW14      30.21F WCI  11
GILLAM         MOSUNNY   23  12  63 NW7       30.34F WCI  15
$$
                ***SASKATCHEWAN***

CITY           SKY/WX    TMP DP  RH WIND       PRES   REMARKS
ESTEVAN        MOSUNNY   48  28  46 W8        30.46S
KINDERSLEY     MOSUNNY   46  30  53 SW17      30.32F
LLOYDMINSTER   MOSUNNY   46  30  53 SW12      30.21F
PRINCE ALBERT  MOSUNNY   45  30  57 SW9       30.30F
REGINA         MOSUNNY   48  28  46 W14       30.42F
YORKTON        SUNNY     45  28  53 SW7       30.40F



USA.gov is the U.S. government's official web portal to all federal, state and local government web resources and services.